Location: Little Baddow
(51.7333°N, 0.5667°E)
Time: 11:27:30
(UTC+00:00)

ADEOS II - Pass Details

Date: 08 November 2025
Orbit: 794 x 794 km, 98.8° (Epoch: 09 December)

Event Time Altitude Azimuth Distance (km) Brightness Sun altitude
Rises 05:16:04 0° 4° (N) 3,311 5.3 -16.9°
Reaches altitude 10° 05:19:57 10° 335° (NNW) 2,376 4.2 -16.3°
Enters shadow 05:20:40 11° 327° (NNW) 2,292 4.1 -16.2°
